CSN3550 ZGGG-ZSPD

Flight info

Callsign CSN3550
Flight time 1h 35m
Altitude 35100
Route LMN9 LMN G471 XEBUL DCT ODOPI DCT AKAVO DCT UPNUG W76 AREPI B221 SHZ W58 BK BK81A
Aircraft B77W/H-SDE2E3FGHIJ1J2J4J5LM1OP2RVWXYZ/LB1D1

Departure

Time 2026-05-04 15:52
Airport Guangzhou Baiyun International Airport (ZGGG)

Arrival

Time 2026-05-04 17:28
Airport Shanghai Pudong International Airport (ZSPD)
Time Latitude Longitude Altitude Speed Heading
2026-05-04 15:10 23.40141 113.30294 63 ft 0 kts 194°
2026-05-04 15:35 23.40157 113.30298 54 ft 3 kts 194°
2026-05-04 15:36 23.40196 113.30309 54 ft 3 kts 181°
2026-05-04 15:36 23.40214 113.30307 56 ft 3 kts 152°
2026-05-04 15:36 23.40227 113.30296 54 ft 3 kts 119°
2026-05-04 15:37 23.40235 113.30276 57 ft 3 kts 104°
2026-05-04 15:37 23.40240 113.30252 57 ft 3 kts 104°
2026-05-04 15:37 23.40243 113.30240 55 ft 0 kts 104°
2026-05-04 15:41 23.40243 113.30241 57 ft 1 kts 104°
2026-05-04 15:41 23.40236 113.30271 63 ft 9 kts 103°
2026-05-04 15:41 23.40244 113.30340 59 ft 9 kts 64°
2026-05-04 15:41 23.40284 113.30397 54 ft 9 kts 47°
2026-05-04 15:42 23.40333 113.30453 57 ft 12 kts 47°
2026-05-04 15:42 23.40353 113.30537 59 ft 12 kts 96°
2026-05-04 15:42 23.40334 113.30625 57 ft 12 kts 104°
2026-05-04 15:42 23.40307 113.30741 61 ft 14 kts 104°
2026-05-04 15:43 23.40285 113.30825 54 ft 9 kts 118°
2026-05-04 15:43 23.40229 113.30848 56 ft 9 kts 184°
2026-05-04 15:43 23.40130 113.30823 55 ft 24 kts 194°
2026-05-04 15:43 23.39917 113.30766 58 ft 34 kts 193°
2026-05-04 15:44 23.39693 113.30705 57 ft 33 kts 194°
2026-05-04 15:44 23.39477 113.30647 57 ft 31 kts 194°
2026-05-04 15:44 23.39278 113.30594 55 ft 26 kts 194°
2026-05-04 15:44 23.39118 113.30550 59 ft 22 kts 194°
2026-05-04 15:45 23.38975 113.30512 56 ft 18 kts 194°
2026-05-04 15:45 23.38897 113.30493 57 ft 8 kts 182°
2026-05-04 15:45 23.38855 113.30531 56 ft 8 kts 115°
2026-05-04 15:45 23.38837 113.30594 57 ft 10 kts 105°
2026-05-04 15:46 23.38793 113.30655 54 ft 12 kts 169°
2026-05-04 15:46 23.38710 113.30641 56 ft 13 kts 194°
2026-05-04 15:46 23.38590 113.30608 55 ft 21 kts 193°
2026-05-04 15:46 23.38449 113.30570 56 ft 21 kts 194°
2026-05-04 15:47 23.38311 113.30533 59 ft 21 kts 194°
2026-05-04 15:47 23.38170 113.30495 55 ft 21 kts 194°
2026-05-04 15:47 23.38029 113.30457 58 ft 21 kts 194°
2026-05-04 15:47 23.37915 113.30426 58 ft 13 kts 194°
2026-05-04 15:48 23.37843 113.30414 57 ft 7 kts 168°
2026-05-04 15:48 23.37815 113.30440 55 ft 2 kts 123°
2026-05-04 15:48 23.37813 113.30442 55 ft 0 kts 120°
2026-05-04 15:50 23.37804 113.30467 56 ft 9 kts 108°
2026-05-04 15:50 23.37788 113.30538 61 ft 8 kts 104°
2026-05-04 15:50 23.37800 113.30583 53 ft 7 kts 49°
2026-05-04 15:50 23.37841 113.30606 57 ft 7 kts 17°
2026-05-04 15:51 23.37866 113.30613 56 ft 0 kts 14°
2026-05-04 15:51 23.37878 113.30616 57 ft 12 kts 14°
2026-05-04 15:52 23.38143 113.30688 57 ft 78 kts 14°
2026-05-04 15:52 23.38942 113.30904 59 ft 156 kts 14°
2026-05-04 15:52 23.40114 113.31236 494 ft 175 kts 16°
2026-05-04 15:52 23.41294 113.31578 1409 ft 179 kts 16°
2026-05-04 15:53 23.42521 113.31931 2154 ft 185 kts 16°
2026-05-04 15:53 23.43785 113.32298 2845 ft 190 kts 16°
2026-05-04 15:53 23.45057 113.32669 3528 ft 194 kts 16°
2026-05-04 15:53 23.46389 113.33063 4108 ft 205 kts 15°
2026-05-04 15:54 23.47832 113.33488 4521 ft 226 kts 15°
2026-05-04 15:54 23.49421 113.33961 4971 ft 245 kts 15°
2026-05-04 15:54 23.51098 113.34463 5663 ft 255 kts 14°
2026-05-04 15:54 23.52819 113.34979 6519 ft 258 kts 13°
2026-05-04 15:55 23.54569 113.35503 7320 ft 263 kts 13°
2026-05-04 15:55 23.56365 113.36006 7953 ft 275 kts
2026-05-04 15:55 23.58275 113.36383 8497 ft 289 kts
2026-05-04 15:55 23.60292 113.36752 9214 ft 297 kts
2026-05-04 15:56 23.62213 113.37706 9790 ft 316 kts 39°
2026-05-04 15:56 23.63505 113.39659 10433 ft 328 kts 69°
2026-05-04 15:56 23.63938 113.42170 10719 ft 349 kts 89°
2026-05-04 15:56 23.63982 113.44926 10928 ft 377 kts 91°
2026-05-04 15:57 23.63994 113.47886 11293 ft 400 kts 91°
2026-05-04 15:57 23.63999 113.50959 12026 ft 411 kts 91°
2026-05-04 15:57 23.64011 113.54060 12904 ft 419 kts 91°
2026-05-04 15:57 23.64032 113.57263 13846 ft 426 kts 91°
2026-05-04 15:58 23.64061 113.60514 14683 ft 432 kts 91°
2026-05-04 15:58 23.64096 113.63820 15490 ft 439 kts 90°
2026-05-04 15:58 23.64135 113.67173 16309 ft 446 kts 90°
2026-05-04 15:58 23.64177 113.70574 17160 ft 452 kts 90°
2026-05-04 15:59 23.64217 113.73864 17894 ft 458 kts 90°
2026-05-04 15:59 23.64259 113.77368 18598 ft 466 kts 90°
2026-05-04 15:59 23.64300 113.80865 19308 ft 470 kts 90°
2026-05-04 15:59 23.64340 113.84445 20097 ft 472 kts 90°
2026-05-04 16:00 23.64380 113.88043 20804 ft 478 kts 90°
2026-05-04 16:00 23.64419 113.91689 21437 ft 484 kts 90°
2026-05-04 16:00 23.64457 113.95383 22111 ft 489 kts 90°
2026-05-04 16:00 23.64495 113.99111 22783 ft 494 kts 90°
2026-05-04 16:01 23.64533 114.02873 23464 ft 498 kts 90°
2026-05-04 16:01 23.64570 114.06663 24027 ft 503 kts 90°
2026-05-04 16:01 23.64606 114.10487 24511 ft 508 kts 90°
2026-05-04 16:01 23.64643 114.14370 24971 ft 514 kts 91°
2026-05-04 16:02 23.64677 114.18227 25446 ft 519 kts 91°
2026-05-04 16:02 23.64712 114.22183 25910 ft 524 kts 91°
2026-05-04 16:02 23.65452 114.30107 26734 ft 534 kts 70°
2026-05-04 16:03 23.67103 114.33730 27167 ft 535 kts 53°
2026-05-04 16:03 23.69489 114.36815 27669 ft 530 kts 37°
2026-05-04 16:03 23.72399 114.39244 28077 ft 528 kts 31°
2026-05-04 16:03 23.75372 114.41634 28404 ft 534 kts 31°
2026-05-04 16:04 23.78320 114.44043 28842 ft 539 kts 32°
2026-05-04 16:04 23.84354 114.48993 29727 ft 546 kts 31°
2026-05-04 16:04 23.87407 114.51493 30164 ft 549 kts 31°
2026-05-04 16:05 23.90467 114.53995 30615 ft 550 kts 31°
2026-05-04 16:05 23.93522 114.56491 31194 ft 547 kts 31°
2026-05-04 16:05 23.99592 114.61454 32293 ft 543 kts 31°
2026-05-04 16:06 24.02620 114.63930 32816 ft 542 kts 31°
2026-05-04 16:06 24.10641 114.70497 34141 ft 540 kts 31°
2026-05-04 16:07 24.14611 114.73753 34722 ft 537 kts 31°
2026-05-04 16:07 24.23574 114.81111 35185 ft 536 kts 31°
2026-05-04 16:08 24.26492 114.83671 35183 ft 539 kts 36°
2026-05-04 16:08 24.34019 114.92873 35186 ft 547 kts 48°
2026-05-04 16:09 24.38597 114.99544 35174 ft 547 kts 49°
2026-05-04 16:10 24.47826 115.12800 35181 ft 547 kts 48°
2026-05-04 16:11 24.57098 115.26027 35189 ft 550 kts 48°
2026-05-04 16:12 24.70977 115.46115 35184 ft 553 kts 50°
2026-05-04 16:13 24.79867 115.59948 35171 ft 553 kts 51°
2026-05-04 16:14 24.88753 115.73693 35196 ft 553 kts 51°
2026-05-04 16:16 24.99924 115.90978 35190 ft 554 kts 51°
2026-05-04 16:17 25.11058 116.08283 35191 ft 555 kts 51°
2026-05-04 16:18 25.19986 116.22207 35205 ft 554 kts 51°
2026-05-04 16:19 25.31119 116.39618 35199 ft 558 kts 51°
2026-05-04 16:20 25.42262 116.57114 35198 ft 557 kts 51°
2026-05-04 16:22 25.53381 116.74639 35192 ft 559 kts 51°
2026-05-04 16:23 25.66719 116.95749 35202 ft 560 kts 52°
2026-05-04 16:25 25.80060 117.16952 35201 ft 557 kts 52°
2026-05-04 16:26 25.95501 117.41618 35212 ft 558 kts 52°
2026-05-04 16:28 26.06532 117.59321 35224 ft 559 kts 52°
2026-05-04 16:29 26.21982 117.84229 35232 ft 561 kts 52°
2026-05-04 16:31 26.33020 118.02111 35237 ft 559 kts 52°
2026-05-04 16:32 26.46176 118.23510 35228 ft 559 kts 52°
2026-05-04 16:33 26.54942 118.37827 35250 ft 559 kts 52°
2026-05-04 16:34 26.61533 118.48616 35247 ft 562 kts 52°
2026-05-04 16:35 26.74686 118.70243 35231 ft 559 kts 52°
2026-05-04 16:36 26.81187 118.80965 35267 ft 557 kts 52°
2026-05-04 16:37 26.87718 118.91761 35272 ft 559 kts 52°
2026-05-04 16:38 26.96448 119.06236 35278 ft 562 kts 52°
2026-05-04 16:39 27.07349 119.24381 35271 ft 563 kts 52°
2026-05-04 16:40 27.16085 119.38973 35264 ft 564 kts 52°
2026-05-04 16:41 27.26782 119.57128 35265 ft 564 kts 58°
2026-05-04 16:43 27.35772 119.76788 35260 ft 565 kts 60°
2026-05-04 16:43 27.41169 119.88564 35262 ft 565 kts 60°
2026-05-04 16:45 27.51962 120.12152 35252 ft 568 kts 60°
2026-05-04 16:46 27.61078 120.31919 35235 ft 567 kts 53°
2026-05-04 16:47 27.66072 120.38630 35252 ft 554 kts 37°
2026-05-04 16:47 27.72117 120.43694 35271 ft 541 kts 24°
2026-05-04 16:48 27.84939 120.52669 35256 ft 544 kts 25°
2026-05-04 16:49 27.97683 120.61864 35253 ft 543 kts 21°
2026-05-04 16:50 28.04493 120.65103 35260 ft 523 kts
2026-05-04 16:50 28.11512 120.66623 35256 ft 505 kts 354°
2026-05-04 16:51 28.22047 120.67520 35251 ft 508 kts 353°
2026-05-04 16:52 28.36140 120.68890 35261 ft 510 kts 354°
2026-05-04 16:53 28.46731 120.69942 35250 ft 509 kts 354°
2026-05-04 16:54 28.60792 120.71353 35251 ft 509 kts 354°
2026-05-04 16:55 28.81889 120.73566 35239 ft 509 kts 355°
2026-05-04 16:56 28.99576 120.75414 35233 ft 512 kts 354°
2026-05-04 16:57 29.10148 120.76503 35235 ft 515 kts 354°
2026-05-04 16:58 29.24382 120.77986 35226 ft 516 kts 354°
2026-05-04 17:00 29.45825 120.80219 35222 ft 516 kts 354°
2026-05-04 17:00 29.56573 120.81654 34281 ft 544 kts
2026-05-04 17:01 29.63070 120.86521 32830 ft 576 kts 45°
2026-05-04 17:01 29.67442 120.94096 31741 ft 568 kts 56°
2026-05-04 17:02 29.71554 121.01777 30669 ft 559 kts 54°
2026-05-04 17:02 29.75737 121.09227 29479 ft 550 kts 53°
2026-05-04 17:03 29.77833 121.12879 28880 ft 544 kts 53°
2026-05-04 17:03 29.79909 121.16488 28337 ft 538 kts 53°
2026-05-04 17:03 29.83986 121.23620 27269 ft 528 kts 53°
2026-05-04 17:04 29.88161 121.30302 26344 ft 504 kts 39°
2026-05-04 17:04 29.93790 121.34563 25520 ft 471 kts 14°
2026-05-04 17:05 29.99919 121.36418 24724 ft 452 kts
2026-05-04 17:05 30.06099 121.37987 23925 ft 456 kts
2026-05-04 17:06 30.12233 121.39612 23051 ft 454 kts
2026-05-04 17:06 30.15295 121.40439 22589 ft 450 kts
2026-05-04 17:07 30.21310 121.42076 21678 ft 439 kts
2026-05-04 17:07 30.23269 121.42610 21387 ft 435 kts
2026-05-04 17:07 30.27185 121.43675 20791 ft 429 kts
2026-05-04 17:07 30.30073 121.44459 20366 ft 424 kts
2026-05-04 17:08 30.32887 121.45224 19934 ft 419 kts
2026-05-04 17:08 30.38512 121.46751 19108 ft 416 kts
2026-05-04 17:08 30.41388 121.47522 18727 ft 432 kts
2026-05-04 17:09 30.44327 121.48313 18332 ft 434 kts
2026-05-04 17:09 30.47264 121.49113 17868 ft 433 kts
2026-05-04 17:09 30.50187 121.49914 17400 ft 430 kts
2026-05-04 17:10 30.55936 121.51491 16492 ft 425 kts
2026-05-04 17:10 30.64476 121.53827 15186 ft 415 kts
2026-05-04 17:11 30.67280 121.54594 14762 ft 412 kts
2026-05-04 17:11 30.70056 121.55354 14333 ft 409 kts
2026-05-04 17:11 30.75541 121.56857 13453 ft 401 kts
2026-05-04 17:12 30.78196 121.57586 12996 ft 394 kts
2026-05-04 17:12 30.83429 121.59024 12075 ft 379 kts
2026-05-04 17:13 30.90908 121.61079 10913 ft 359 kts
2026-05-04 17:14 30.97475 121.62883 9956 ft 356 kts 10°
2026-05-04 17:14 30.99847 121.63536 9575 ft 354 kts 10°
2026-05-04 17:14 31.04605 121.64848 8801 ft 349 kts 10°
2026-05-04 17:15 31.06962 121.65498 8423 ft 347 kts 10°
2026-05-04 17:15 31.11397 121.66730 7697 ft 297 kts
2026-05-04 17:16 31.15057 121.66462 7024 ft 253 kts 342°
2026-05-04 17:16 31.20098 121.64607 6084 ft 252 kts 342°
2026-05-04 17:17 31.21761 121.64001 5738 ft 244 kts 342°
2026-05-04 17:17 31.26275 121.62351 4928 ft 220 kts 341°
2026-05-04 17:18 31.27705 121.61807 4667 ft 218 kts 341°
2026-05-04 17:18 31.30551 121.60721 4160 ft 213 kts 341°
2026-05-04 17:19 31.33336 121.59662 3648 ft 208 kts 341°
2026-05-04 17:19 31.36054 121.58627 3402 ft 207 kts 341°
2026-05-04 17:20 31.38901 121.58086 3132 ft 216 kts 17°
2026-05-04 17:20 31.40767 121.60721 3015 ft 224 kts 72°
2026-05-04 17:20 31.41105 121.62452 2983 ft 211 kts 76°
2026-05-04 17:21 31.41670 121.65629 3058 ft 194 kts 76°
2026-05-04 17:21 31.40974 121.68534 3001 ft 198 kts 144°
2026-05-04 17:22 31.39726 121.69138 3015 ft 194 kts 166°
2026-05-04 17:22 31.38438 121.69605 3007 ft 198 kts 163°
2026-05-04 17:23 31.34463 121.71123 3009 ft 201 kts 163°
2026-05-04 17:23 31.33136 121.71628 3001 ft 200 kts 163°
2026-05-04 17:23 31.30496 121.72632 2995 ft 199 kts 163°
2026-05-04 17:24 31.29174 121.73135 2843 ft 202 kts 163°
2026-05-04 17:24 31.25384 121.74577 2061 ft 174 kts 164°
2026-05-04 17:25 31.24264 121.75003 1838 ft 169 kts 163°
2026-05-04 17:25 31.22124 121.75815 1397 ft 152 kts 163°
2026-05-04 17:26 31.20158 121.76561 1017 ft 148 kts 163°
2026-05-04 17:26 31.17315 121.77640 426 ft 139 kts 163°
2026-05-04 17:27 31.15453 121.78346 58 ft 142 kts 162°
2026-05-04 17:27 31.13909 121.78929 26 ft 77 kts 162°
2026-05-04 17:28 31.13336 121.79147 29 ft 29 kts 160°
2026-05-04 17:29 31.12982 121.79481 28 ft 22 kts 150°
2026-05-04 17:29 31.12669 121.79610 28 ft 8 kts 148°
2026-05-04 17:30 31.12693 121.79829 28 ft 14 kts 72°
2026-05-04 17:31 31.12757 121.80060 28 ft 15 kts 72°
2026-05-04 17:31 31.12872 121.80474 28 ft 20 kts 72°
2026-05-04 17:32 31.12957 121.80779 28 ft 20 kts 72°
2026-05-04 17:33 31.13065 121.81160 28 ft 9 kts 59°
2026-05-04 17:33 31.13112 121.81183 28 ft 8 kts 357°
2026-05-04 17:34 31.13391 121.81085 28 ft 14 kts 342°
2026-05-04 17:34 31.13444 121.81051 28 ft 7 kts 314°
2026-05-04 17:35 31.13563 121.80977 28 ft 7 kts 342°
2026-05-04 17:35 31.13614 121.80958 28 ft 0 kts 342°